TimeMST,TemperatureF,Dew PointF,Humidity,Sea Level PressureIn,VisibilityMPH,Wind Direction,Wind SpeedMPH,Gust SpeedMPH,PrecipitationIn,Events,Conditions,WindDirDegrees,DateUTC
12:14 AM,13.6,12.2,94,29.62,4.0,Calm,Calm,-,N/A,,Clear,0,2013-12-21 07:14:00
12:34 AM,13.6,12.0,93,29.61,5.0,Calm,Calm,-,N/A,,Clear,0,2013-12-21 07:34:00
12:54 AM,14.0,12.6,94,29.59,5.0,Calm,Calm,-,N/A,,Clear,0,2013-12-21 07:54:00
1:14 AM,13.6,12.0,93,29.58,4.0,Calm,Calm,-,N/A,,Clear,0,2013-12-21 08:14:00
1:34 AM,14.5,13.1,94,29.57,4.0,Calm,Calm,-,N/A,,Clear,0,2013-12-21 08:34:00
1:54 AM,13.1,11.7,94,29.57,5.0,Calm,Calm,-,N/A,,Clear,0,2013-12-21 08:54:00
2:14 AM,14.0,12.2,93,29.57,5.0,Calm,Calm,-,N/A,,Clear,0,2013-12-21 09:14:00
2:34 AM,13.1,11.5,93,29.56,5.0,Calm,Calm,-,N/A,,Clear,0,2013-12-21 09:34:00
2:54 AM,12.7,10.9,92,29.56,5.0,Calm,Calm,-,N/A,,Clear,0,2013-12-21 09:54:00
3:14 AM,11.8,10.2,93,29.56,4.0,Calm,Calm,-,N/A,,Clear,0,2013-12-21 10:14:00
3:34 AM,11.8,10.2,93,29.55,5.0,Calm,Calm,-,N/A,,Scattered Clouds,0,2013-12-21 10:34:00
3:54 AM,12.0,10.4,93,29.55,5.0,Calm,Calm,-,N/A,,Overcast,0,2013-12-21 10:54:00
4:14 AM,15.1,13.6,94,29.54,5.0,Calm,Calm,-,N/A,,Overcast,0,2013-12-21 11:14:00
4:34 AM,16.5,15.4,96,29.54,0.2,NNW,3.5,-,N/A,Fog,Light Freezing Fog,340,2013-12-21 11:34:00
4:54 AM,16.7,15.6,96,29.54,0.2,Calm,Calm,-,N/A,Fog,Light Freezing Fog,0,2013-12-21 11:54:00
5:14 AM,16.9,15.8,96,29.54,0.2,Calm,Calm,-,N/A,Fog,Light Freezing Fog,0,2013-12-21 12:14:00
5:34 AM,16.9,15.8,96,29.56,0.2,Calm,Calm,-,N/A,Fog,Light Freezing Fog,0,2013-12-21 12:34:00
5:54 AM,17.6,16.5,96,29.56,0.2,ENE,4.6,-,N/A,Fog,Light Freezing Fog,70,2013-12-21 12:54:00
6:14 AM,17.2,15.8,94,29.57,0.2,Calm,Calm,-,N/A,Fog,Light Freezing Fog,0,2013-12-21 13:14:00
6:34 AM,17.2,15.8,94,29.59,0.2,NW,3.5,-,N/A,Fog,Light Freezing Fog,320,2013-12-21 13:34:00
6:54 AM,17.4,16.3,96,29.59,0.2,Calm,Calm,-,N/A,Fog,Light Freezing Fog,0,2013-12-21 13:54:00
7:14 AM,17.8,16.7,96,29.58,0.2,Calm,Calm,-,N/A,Fog,Light Freezing Fog,0,2013-12-21 14:14:00
7:34 AM,18.5,17.6,96,29.58,0.2,West,3.5,-,N/A,Fog,Light Freezing Fog,260,2013-12-21 14:34:00
7:54 AM,18.5,17.4,96,29.58,0.5,Calm,Calm,-,N/A,Fog,Light Freezing Fog,0,2013-12-21 14:54:00
8:14 AM,19.0,18.3,97,29.57,1.5,NW,4.6,-,N/A,,Overcast,320,2013-12-21 15:14:00
8:34 AM,20.3,19.6,97,29.58,1.2,North,3.5,-,N/A,,Overcast,350,2013-12-21 15:34:00
8:54 AM,20.3,19.4,96,29.59,2.5,North,4.6,-,N/A,,Mostly Cloudy,350,2013-12-21 15:54:00
9:14 AM,20.3,19.4,96,29.60,4.0,North,4.6,-,N/A,,Scattered Clouds,10,2013-12-21 16:14:00
9:34 AM,20.1,19.2,96,29.61,3.0,Calm,Calm,-,N/A,,Clear,0,2013-12-21 16:34:00
9:54 AM,21.4,20.7,97,29.61,4.0,Calm,Calm,-,N/A,,Clear,0,2013-12-21 16:54:00
10:14 AM,22.5,21.9,98,29.61,4.0,Calm,Calm,-,N/A,,Clear,0,2013-12-21 17:14:00
10:34 AM,22.6,22.1,98,29.62,4.0,Calm,Calm,-,N/A,,Scattered Clouds,0,2013-12-21 17:34:00
10:54 AM,25.7,25.5,99,29.62,5.0,North,3.5,-,N/A,,Mostly Cloudy,10,2013-12-21 17:54:00
11:14 AM,24.3,23.7,98,29.63,5.0,North,4.6,-,N/A,,Mostly Cloudy,10,2013-12-21 18:14:00
11:34 AM,24.6,24.1,98,29.62,5.0,NW,4.6,-,N/A,,Scattered Clouds,320,2013-12-21 18:34:00
11:54 AM,25.9,25.7,99,29.61,7.0,North,5.8,-,N/A,,Clear,350,2013-12-21 18:54:00
12:14 PM,27.1,26.2,96,29.60,7.0,North,8.1,-,N/A,,Scattered Clouds,360,2013-12-21 19:14:00
12:34 PM,30.7,23.7,75,29.60,10.0,North,9.2,-,N/A,,Clear,360,2013-12-21 19:34:00
12:54 PM,30.6,22.1,71,29.60,10.0,North,8.1,-,N/A,,Clear,10,2013-12-21 19:54:00
1:14 PM,30.2,22.5,73,29.61,10.0,North,9.2,-,N/A,,Clear,360,2013-12-21 20:14:00
1:34 PM,30.9,22.1,70,29.61,10.0,NNE,6.9,-,N/A,,Clear,20,2013-12-21 20:34:00
1:54 PM,31.1,22.1,69,29.62,10.0,North,3.5,-,N/A,,Clear,350,2013-12-21 20:54:00
2:14 PM,32.2,21.7,65,29.62,10.0,NNE,6.9,-,N/A,,Scattered Clouds,30,2013-12-21 21:14:00
2:34 PM,32.2,21.9,66,29.63,10.0,NNE,4.6,-,N/A,,Clear,20,2013-12-21 21:34:00
2:54 PM,32.5,21.0,63,29.64,10.0,North,3.5,-,N/A,,Scattered Clouds,360,2013-12-21 21:54:00
3:14 PM,32.4,20.3,61,29.66,10.0,North,4.6,-,N/A,,Mostly Cloudy,10,2013-12-21 22:14:00
3:34 PM,32.4,20.3,61,29.67,10.0,NNW,4.6,-,N/A,,Mostly Cloudy,330,2013-12-21 22:34:00
3:54 PM,32.5,18.5,56,29.69,10.0,ENE,3.5,-,N/A,,Overcast,60,2013-12-21 22:54:00
4:14 PM,32.0,15.8,51,29.69,10.0,NNE,6.9,-,N/A,,Overcast,30,2013-12-21 23:14:00
4:34 PM,31.8,16.0,52,29.71,10.0,North,4.6,-,N/A,,Overcast,350,2013-12-21 23:34:00
4:54 PM,30.4,20.1,66,29.72,10.0,NNE,8.1,-,N/A,,Overcast,20,2013-12-21 23:54:00
5:14 PM,29.5,21.9,73,29.74,7.0,NNE,8.1,-,N/A,Snow,Light Snow,20,2013-12-22 00:14:00
5:34 PM,27.9,25.2,90,29.75,2.0,NNE,5.8,-,N/A,Snow,Light Snow,20,2013-12-22 00:34:00
5:54 PM,27.3,25.7,94,29.77,1.0,North,3.5,-,N/A,Snow,Snow,10,2013-12-22 00:54:00
6:14 PM,27.1,26.1,96,29.77,2.0,Calm,Calm,-,N/A,Snow,Light Snow,0,2013-12-22 01:14:00
6:34 PM,27.0,26.1,96,29.78,2.5,Calm,Calm,-,N/A,Snow,Light Snow,0,2013-12-22 01:34:00
6:54 PM,26.6,25.7,96,29.79,5.0,Calm,Calm,-,N/A,Snow,Light Snow,0,2013-12-22 01:54:00
7:14 PM,26.4,25.7,97,29.80,5.0,Calm,Calm,-,N/A,Snow,Light Snow,0,2013-12-22 02:14:00
7:34 PM,26.4,25.7,97,29.81,2.0,Calm,Calm,-,N/A,Snow,Light Snow,0,2013-12-22 02:34:00
7:54 PM,26.4,25.5,96,29.82,4.0,Calm,Calm,-,N/A,Snow,Light Snow,0,2013-12-22 02:54:00
8:14 PM,26.4,25.5,96,29.82,4.0,Calm,Calm,-,N/A,Snow,Light Snow,0,2013-12-22 03:14:00
8:34 PM,27.0,26.1,96,29.82,3.0,SSE,3.5,-,N/A,Snow,Light Snow,160,2013-12-22 03:34:00
8:54 PM,26.6,25.5,96,29.82,10.0,South,4.6,-,N/A,,Mostly Cloudy,190,2013-12-22 03:54:00
9:14 PM,25.5,24.4,96,29.82,10.0,South,3.5,-,N/A,,Scattered Clouds,190,2013-12-22 04:14:00
9:34 PM,23.9,23.0,96,29.83,7.0,Calm,Calm,-,N/A,,Clear,0,2013-12-22 04:34:00
9:54 PM,23.5,22.8,97,29.83,7.0,Calm,Calm,-,N/A,,Mostly Cloudy,0,2013-12-22 04:54:00
10:14 PM,22.1,21.2,96,29.84,7.0,Calm,Calm,-,N/A,,Overcast,0,2013-12-22 05:14:00
10:34 PM,22.1,21.6,98,29.84,7.0,SSW,3.5,-,N/A,,Overcast,200,2013-12-22 05:34:00
10:54 PM,21.9,21.2,97,29.85,7.0,Calm,Calm,-,N/A,,Mostly Cloudy,0,2013-12-22 05:54:00
11:14 PM,21.2,20.5,97,29.85,7.0,Calm,Calm,-,N/A,,Overcast,0,2013-12-22 06:14:00
11:34 PM,22.1,21.2,96,29.87,7.0,Calm,Calm,-,N/A,,Scattered Clouds,0,2013-12-22 06:34:00
11:54 PM,23.2,22.1,96,29.88,7.0,Calm,Calm,-,N/A,,Clear,0,2013-12-22 06:54:00